EHI
0 0 0 0 0 0 0 0 0 0 0 0 0 0 0 0 0 0 0 0 0 0 0 0 0 0 0 0 0 0 0 0 0 0 0 0 0 0
0 0 0 0 0 0 0 0 0 0 0 0 0 0 0 0 0 0 0 0 0 0 0 0 0 0 0 0 0 0 0 0 0 0 0 0 0 0
0 0 0 0 0 0 0 0 0 0 0 0 0 0 0 0 0 0 0 0 0 0 0 0 0 0 0 0 0 0 0 0 0 0 0 0 0 0
0 0 0 0 0 0 0 0 0 0 0 0 0 0 0 0 0 0 0 0 0 0 0 0 0 0 0 0 0 0 0 0 0 0 0 0 0 0
0 0 0 0 0 0 0 0 0 0 0 0 0 0 0 0 0 0 0 0 0 0 0 0 0 0 0 0 0 0 0 0 0 0 0 0 0 0
0 0 0 0 0 0 0 0 0 0 0 0 0 0 0 0 0 0 0 0 0 0 0 0 0 0 0 0 0 0 0 0 0 0 0 0 0 0
0 0 0 0 0 0 0 0 0 0 0 0 0 0 0 0 0 0 0 0 0 0 0 0 0 0 0 0 0 0 0 0 0 0 0 0 0 0
0 0 0 0 0 0 0 0 0 0 0 0 0 0 0 0 0 0 0 0 0 0 0 0 0 0 0 0 0 0 0 0 0 0 0 0 0 0
0 0 0 0 0 0 0 0 0 0 0 0 0 0 0 0 0 0 0 0 0 0 0 0 0 0 0 0 0 0 0 0 0 0 0 0 0 0
0 0 0 0 0 0 0 0 0 0 0 0 0 0 0 0 0 0 0 0 0 0 0 0 0 0 0 0 0 0 0 0 0 0 0 0 0 0
0 0 0 0 0 0 0 0 0 0 0 0 0 0 0 0 0 0 0 0 0 0 0 0 0 0 0 0 0 0 0 0 0 0 0 0 0 0
0 0 0 0 0 0 0 0 0 0 0 0 0 0 0 0 0 0 0 0 0 0 0 0 0 0 0 0 0 0 0 0 0 0 0 0 0 0
0 0 0 0 0 0 0 0 0 0 0 0 0 0 0 0 0 0 0 0 0 0 0 0 0 0 0 0 0 0 0 0 0 0 0 0 0 0
0 0 0 0 0 0 0 0 0 0 0 0 0 0 0 0 0 0 0 0 0 0 0 0 0 0 0 0 0 0 0 0 0 0 0 0 0 0
0 0 0 0 0 0 0 0 0 0 0 0 0 0 0 0 0 0 0 0 0 0 0 0 0 0 0 0 0 0 0 0 0 0 0 0 0 0
0 0 0 0 0 0 0 0 0 0 0 0 0 0 0 0 0 0 0 0 0 0 0 0 0 0 0 0 0 0 0 0 0 0 0 0 0 0
0 0 0 0 0 0 0 0 0 0 0 0 0 0 0 0 0 0 0 0 0 0 0 0 0 0 0 0 0 0 0 0 0 0 0 0 0 0
0 0 0 0 0 0 0 0 0 0 0 0 0 0 0 0 0 0 0 0 0 0 0 0 0 0 0 0 0 0 0 0 0 0 0 0 0 0
0 0 0 0 0 0 0 0 0 0 0 0 0 0 0 0 0 0 0 0 0 0 0 0 0 0 0 0 0 0 0 0 0 0 0 0 0 0
0 0 0 0 0 0 0 0 0 0 0 0 0 0 0 0 0 0 0 0 0 0 0 0 0 0 0 0 0 0 0 0 0 0 0 0 0 0
0 0 0 0 0 0 0 0 0 0 0 0 0 0 0 0 0 0 0 0 0 0 0 0 0 0 0 0 0 0 0 0 0 0 0 0 0 0
0 0 0 0 0 0 0 0 0 0 0 0 0 0 0 0 0 0 0 0 0 0 0 0 0 0 0 0 0 0 0 0 0 0 0 0 0 0
0 0 0 0 0 0 0 0 0 0 0 0 0 0 0 0 0 0 0 0 0 0 0 0 0 0 0 0 0 0 0 0 0 0 0 0 0 0
Wind_Speed
7 8 7 7 6 6 7 7 10 17 16 8 6 5 5 6 12 9 7 18 25 25 25 25 25 27 28 29 29 30 31 31 31 31 31 31 32 33
6 8 8 7 6 6 6 7 7 12 19 10 6 6 7 9 16 12 9 23 25 26 26 26 27 27 28 28 29 29 30 30 31 32 32 32 31 31
8 8 9 8 7 7 7 7 7 8 16 16 7 6 7 9 10 8 9 9 10 24 28 28 28 28 27 27 27 28 29 30 30 31 31 32 32 31
9 9 9 9 10 8 8 9 8 8 12 19 12 6 8 8 9 10 10 11 8 20 27 28 28 28 28 27 27 27 28 28 29 29 30 31 31 30
9 10 10 11 13 11 11 11 10 11 10 14 16 8 7 8 10 10 12 10 11 16 23 25 27 27 26 26 26 26 26 27 27 28 28 29 29 29
10 10 12 12 14 14 13 13 12 12 12 13 14 11 9 8 8 9 10 8 10 11 15 18 22 25 25 25 25 25 25 25 26 27 27 27 26 27
10 11 12 17 23 19 15 12 11 12 12 12 13 12 10 8 8 8 11 9 9 8 8 9 9 8 9 17 21 22 23 24 25 26 26 26 25 25
10 10 11 16 20 26 28 26 22 15 12 12 12 13 12 10 9 9 10 11 10 5 7 9 7 7 6 6 15 22 22 22 23 23 24 24 23 24
10 10 11 13 20 12 19 25 23 27 26 17 15 14 14 11 11 12 12 12 11 5 5 9 5 7 6 9 19 21 21 21 20 20 20 21 22 22
10 12 13 13 13 16 13 13 13 15 18 14 12 14 14 13 12 13 13 13 12 8 7 9 7 7 7 6 16 20 20 20 20 19 19 18 17 18
11 11 14 13 21 28 18 14 14 13 18 24 25 23 25 26 20 10 9 9 10 7 6 6 5 5 5 5 10 19 20 19 18 18 18 17 16 15
9 10 19 22 26 28 17 13 15 14 12 13 16 18 16 17 23 12 8 9 9 6 5 6 4 4 4 4 5 5 8 13 16 16 16 16 15 8
10 9 10 24 28 29 25 15 18 19 12 11 10 9 8 8 8 8 7 8 9 7 3 4 4 4 4 2 2 4 4 4 4 6 10 13 14 10
11 9 12 26 29 29 22 21 27 22 8 7 8 8 7 6 6 6 7 8 8 8 5 5 4 4 4 3 3 2 3 3 3 3 3 8 10 13
12 22 27 30 27 19 21 26 20 9 7 8 8 7 6 5 5 5 5 6 6 6 5 6 5 4 5 4 3 2 2 2 3 3 3 3 3 3
13 18 25 25 20 19 17 13 7 7 8 8 8 6 5 5 5 4 4 4 4 4 5 6 7 6 5 4 3 3 3 2 2 3 3 2 2 3
16 11 9 8 7 7 7 7 6 6 7 6 6 6 6 5 5 4 4 4 4 3 3 4 5 5 5 3 3 4 3 3 3 3 3 3 3 4
19 10 9 8 8 8 8 7 6 6 6 6 6 6 5 5 4 4 4 4 4 4 4 4 4 3 3 4 8 5 4 4 4 4 4 4 5 4
12 8 8 8 8 8 7 7 7 6 6 6 6 6 5 5 4 4 4 4 4 4 4 4 5 5 5 5 5 10 7 5 4 5 5 6 6 6
7 8 9 8 8 7 7 7 7 6 6 6 6 6 5 5 4 4 4 4 4 4 4 4 5 6 7 5 3 4 11 7 5 6 5 5 6 8
8 8 8 8 7 7 7 7 7 6 7 6 6 6 5 5 5 4 4 7 5 4 5 5 6 8 3 2 3 4 5 11 10 6 5 5 5 6
9 9 8 8 7 7 7 7 6 6 6 6 6 5 4 4 5 5 4 4 4 4 5 4 3 3 4 5 7 6 5 5 10 16 16 13 7 7
9 9 8 8 7 7 6 7 7 6 6 5 5 5 4 4 4 4 4 4 4 4 4 3 3 4 5 6 7 6 8 7 6 7 9 16 23 24
Wind_Direction
261 261 261 260 257 256 255 253 272 286 285 270 260 261 275 281 286 287 274 277 279 278 277 276 274 274 273 271 270 269 267 266 265 264 262 258 253 247
268 269 270 269 266 261 258 258 254 270 282 280 262 258 265 274 280 281 278 284 283 281 280 279 277 276 274 272 270 268 266 264 262 261 261 258 255 251
284 284 281 282 281 275 270 266 262 262 276 283 272 263 261 266 275 273 275 274 273 277 278 277 277 277 276 273 271 268 266 264 262 260 258 257 255 252
287 289 289 293 288 285 280 275 272 266 272 283 284 275 267 267 269 270 275 274 266 274 276 275 275 276 276 274 272 270 267 265 262 260 258 257 255 253
279 281 283 285 284 282 279 277 275 274 270 276 282 279 270 268 271 271 268 268 268 271 273 273 274 275 275 275 273 270 267 264 262 260 259 258 257 254
269 270 274 275 277 278 276 273 271 270 268 268 274 277 274 264 262 269 271 260 262 265 267 267 269 272 273 274 274 273 270 267 264 260 257 255 255 255
268 267 270 278 280 282 280 273 267 268 270 270 273 276 275 271 267 267 271 270 260 254 257 258 262 261 265 269 273 275 274 270 266 262 258 255 252 250
277 276 277 284 285 287 287 288 284 279 277 274 277 277 279 274 270 268 272 275 275 234 246 254 245 248 244 240 259 265 268 269 269 265 260 255 253 250
283 286 289 288 292 283 283 285 285 284 282 278 276 276 277 273 272 272 268 269 271 258 256 265 249 252 245 253 260 263 264 266 268 267 266 259 253 249
282 283 283 283 281 284 276 270 266 270 272 272 263 263 265 265 258 261 265 267 265 254 240 261 252 244 247 243 257 261 264 265 265 265 264 262 258 251
282 283 286 284 285 291 290 281 279 275 277 275 271 270 269 270 267 263 256 260 266 253 216 236 244 238 239 241 250 256 259 261 262 262 260 257 254 250
285 281 287 289 291 293 290 283 283 283 278 277 275 275 274 273 275 268 259 265 270 263 211 213 221 209 244 241 234 241 254 261 262 260 257 253 247 241
293 291 285 294 295 295 295 289 285 289 280 276 278 274 264 256 252 245 237 246 258 257 222 213 214 201 217 256 246 226 218 228 250 261 259 252 244 228
296 293 289 295 297 298 298 294 296 299 289 283 281 278 273 267 258 247 238 233 238 250 242 227 227 208 208 214 235 240 219 213 210 221 224 249 249 237
291 294 298 301 303 301 296 297 298 294 287 286 283 279 270 266 265 262 247 235 239 240 235 230 233 223 214 211 205 204 215 227 210 210 211 213 215 219
294 293 297 298 295 293 295 296 287 276 282 280 280 277 274 270 267 261 255 238 239 239 225 228 232 229 224 211 205 210 199 212 208 200 198 206 202 194
300 295 291 291 285 285 287 284 281 284 289 280 279 280 278 273 268 254 245 233 223 224 220 216 223 227 230 214 216 218 213 215 209 194 192 213 220 209
308 298 296 294 293 294 295 293 290 288 287 285 282 278 277 272 266 250 240 235 231 226 220 204 197 207 223 242 228 228 220 218 210 203 199 212 232 225
306 295 292 293 294 295 294 293 292 290 288 287 285 282 278 271 262 255 243 232 229 229 222 200 192 198 215 236 249 217 215 218 211 213 214 215 228 228
289 290 291 291 292 292 291 292 294 293 288 283 281 277 272 269 263 257 246 231 228 228 226 209 201 205 217 224 231 233 215 213 214 223 226 225 235 242
292 291 288 288 290 290 290 288 287 288 286 283 281 276 269 266 263 257 250 251 241 228 230 228 225 222 212 201 240 245 233 225 224 221 215 222 235 235
291 292 289 286 288 288 287 286 285 283 284 280 278 274 267 261 260 257 249 247 241 236 239 238 215 204 202 221 241 250 251 242 244 247 244 232 222 225
292 292 290 288 285 285 283 284 284 282 280 278 276 273 268 264 258 253 253 250 248 243 242 238 223 215 223 229 240 248 252 250 245 246 249 250 249 251